Regional Weather Roundup
Issued by NWS Newport/Morehead, NC

Current Version | Previous Version | Text Only | Print | Product List | Glossary On
Versions: 1 2 3 4 5 6 7 8 9 10 11 12 13 14 15 16 17 18 19 20 21 22 23 24 25 26 27 28 29 30 31 32 33 34 35 36 37 38 39 40 41 42 43 44 45 46 47 48 49 50
386
ASUS42 KMHX 301313
RWRMHX
WEATHER ROUNDUP FOR EASTERN NORTH CAROLINA
NATIONAL WEATHER SERVICE NEWPORT/MOREHEAD CITY NC
900 AM EDT SUN APR 30 2017

NOTE: "FAIR" INDICATES FEW OR NO CLOUDS BELOW 12,000 FEET
WITH NO SIGNIFICANT WEATHER AND/OR OBSTRUCTIONS TO VISIBILITY

NCZ015>017-031-032-045>047-102-103-301400-
NORTH COAST

CITY           SKY/WX    TMP DP  RH WIND       PRES   REMARKS
EDENTON        CLOUDY    77  69  76 W8        30.23R
ELIZABETH CITY LGT RAIN  75  69  81 SW15      30.21R
KITTY HAWK     MOSUNNY   75  67  74 SW7       30.20S
MANTEO         CLOUDY    75  68  78 SW15      30.21F

$$

NCZ045>047-081-094-103-104-301400-
CENTRAL COAST

CITY           SKY/WX    TMP DP  RH WIND       PRES   REMARKS
FRISCO         MOSUNNY   75  70  84 SW7       30.24R HAZE

$$

NCZ095-097-098-100-101-301400-
SOUTHERN COAST

CITY           SKY/WX    TMP DP  RH WIND       PRES   REMARKS
BEAUFORT       MOSUNNY   76  73  91 SW13      30.23R
CEDAR ISLAND   NOT AVBL
JACKSONVILLE   MOSUNNY   76  73  91 SW7       30.22S
PINEY ISLAND   PTSUNNY  N/A N/A N/A SW12      30.22S
WILMINGTON     MOSUNNY   76  72  87 S10       30.22R


$$

NCZ011>013-027>030-043-044-078>080-089-090>093-098-301400-
COASTAL PLAIN

CITY           SKY/WX    TMP DP  RH WIND       PRES   REMARKS
AHOSKIE          N/A     73  68  84 S7        30.20S
CLINTON        CLOUDY    75  71  86 S6        30.23R
ELIZABETHTOWN  CLOUDY    74  72  93 S3        30.22S
GOLDSBORO      MOSUNNY   76  73  90 S10       30.21S
GREENVILLE     MOSUNNY   77  70  78 SW12      30.23S
HAVELOCK       NOT AVBL
KENANSVILLE    CLOUDY    75  70  83 SW7       30.23R
KINSTON        MOSUNNY   75  68  78 S6        30.23R
NEW BERN       PTSUNNY   74  72  93 SW7       30.24R
RICHLANDS      CLOUDY    74  71  91 S8        30.24R
ROCKY MOUNT    PTSUNNY   75  69  81 SW10      30.21S
WASHINGTON     PTSUNNY   74  68  81 W9G17     30.23R
WHITEVILLE     CLOUDY    74  71  91 SE5       30.22R

$$

AMZ130-135-150-152-154-156-158-170-250-252-270-ANZ085-086-088-633-658-670-301400-
MARINE OBSERVATIONS

STATION/POSITION TIME  TEMP    WIND        PRES    WAVE   SWELL
                       AIR SEA DIR/SP/G            HT/PER HT/PER
                 (UTC) (F)     (DEG/KT/KT) (MB)    (FT/S) (FT/S)
CHESAPEAKE LIGHT NOT AVBL
64 E VA BEACH    1250   63 57  220/ 12/ 14 1022.9    3/ 5   2/ 6
DUCK             1248   73 56  220/ 13/ 17 1022.4
2 E DUCK         1230      59                N/A     2/ 7
OREGON INLET     1248          220/ 12/ 15   N/A
13E OREGON INLT  1248      62                N/A     3/ 6   2/ 7
HATTERAS CG      1248   75 72  230/  7/ 11 1023.7
DIAMOND BUOY     1250   76 74  220/ 14/ 16 1023.8    3/ 4   2/ 7
CAPE LOOKOUT     1200   74     210/ 10/ 12 1023.0
BEAUFORT LAB     1248   75 72  200/  9/ 11 1022.8
30 SE NEW RVR IN 1208   74     200/  6/ 10 1023.6
30 SE NEW RVR IN 1243      73                N/A     3/ 7
27 SE WRIGHTSVLE 1208   74 73  170/ 10/ 12 1022.6
5 SE WRIGHTSVLE  1208   73 71  160/  6/ 10 1022.8
225 S CAPE HAT   1150   74 76  150/ 10/ 10 1025.6    3/ 8   3/ 8
41 SE CHARLESTON 1250   76 75  160/ 16/ 17 1022.5    3/ 7   2/ 7

$$




USA.gov is the U.S. government's official web portal to all federal, state and local government web resources and services.